Location: Wellington
(41.3000°S, 174.7830°E)
Time: 03:06:39
(UTC+13:00)

Cosmos 292 Rocket - Pass Details

Date: 24 January 2019
Orbit: 674 x 694 km, 74.0° (Epoch: 13 October)

Event Time Altitude Azimuth Distance (km) Brightness Sun altitude
Rises 21:36:56 0° 204° (SSW) 3,067 8.3 -8.5°
Reaches altitude 10° 21:39:16 10° 208° (SSW) 2,146 7.5 -8.9°
Maximum altitude 21:44:00 56° 285° (WNW) 815 4.4 -9.6°
Drops below altitude 10° 21:48:41 10° 3° (N) 2,127 5.9 -10.3°
Enters shadow 21:50:15 - 6° (N) 2,737 6.5 -10.5°
